Location: Cisewo
(53.3833°N, 14.9000°E)
Time: 10:47:28
(UTC+00:00)

Cosmos 909 Rocket - Pass Details

Date: 18 April 2021
Orbit: 989 x 2090 km, 65.9° (Epoch: 14 May)

Event Time Altitude Azimuth Distance (km) Brightness Sun altitude
Rises 19:07:04 0° 192° (SSW) 3,771 6.9 -8.9°
Reaches altitude 10° 19:09:48 10° 186° (S) 2,772 6.1 -9.2°
Maximum altitude 19:15:38 42° 117° (ESE) 1,395 4.4 -9.9°
Drops below altitude 10° 19:21:39 10° 49° (NE) 2,862 6.3 -10.7°
Sets 19:24:30 0° 43° (NE) 3,906 7.1 -11.0°
